Flag for Canada Weather past 2 weeks in Haldimand, Ontario, Canada

Now
66 °F

Passing clouds.


Feels Like: 66 °F
Forecast: 63 / 76 °F
Wind: 3 mph from Northwest

Location: Hamilton Airport

Current Time: Aug 22, 2014 at 12:53:56 AM

Latest Report: Aug 22, 2014 at 12:00 AM


Visibility: 15 mi

Pressure: 29.97 "Hg

Humidity: 88%

Dew point: 63 °F

Location of HaldimandLocation

Historic Weather in Haldimand — Graph

°F

Haldimand temperature yesterday

Maximum temperature yesterday: 79 °F (at 4:00 PM)
Minimum temperature yesterday: 63 °F (at 7:00 AM)
Average temperature yesterday: 70 °F

Past Weeks' High & Low Weather Summary

 TemperatureHumidityPressure
High81 °F (Aug 11, 1:00 PM)100% (Aug 11, 5:00 AM)30.18 "Hg (Aug 11, 5:00 AM)
Low50 °F (Aug 15, 12:00 AM)41% (Aug 7, 4:00 PM)29.67 "Hg (Aug 12, 4:00 PM)
Average65 °F78%29.95 "Hg
* Reported Aug 6 11:00 PM — Aug 21 11:00 PM, Haldimand, Weather by CustomWeather, © 2014

Note: Actual official high and low records may vary slightly from our data, if they occured in-between our weather recording intervals... More about our weather records

Advertising

Haldimand weather history for previous 24 hours

 ConditionsComfort  
Time TempWeatherWind HumidityBarometerVisibility
11:00 PM
Aug 21
66 °FPassing clouds.7 mph88%29.97 "Hg15 mi
10:00 PM68 °FPassing clouds.7 mph83%29.98 "Hg15 mi
9:00 PM70 °FPassing clouds.6 mph78%29.96 "Hg15 mi
8:00 PM73 °FPassing clouds.5 mph69%29.96 "Hg15 mi
7:00 PM77 °FPassing clouds.6 mph61%29.94 "Hg15 mi
6:00 PM79 °FScattered clouds.7 mph58%29.94 "Hg15 mi
5:00 PM79 °FScattered clouds.13 mph58%29.93 "Hg15 mi
4:00 PM79 °FBroken clouds.14 mph61%29.94 "Hg15 mi
3:00 PM75 °FBroken clouds.7 mph69%29.95 "Hg15 mi
2:00 PM75 °FBroken clouds.12 mph65%29.96 "Hg15 mi
1:00 PM75 °FPartly sunny.9 mph69%29.96 "Hg15 mi
12:00 PM73 °FScattered clouds.10 mph74%29.97 "Hg15 mi
11:00 AM72 °FPartly sunny.9 mph78%29.98 "Hg15 mi
10:00 AM68 °FBroken clouds.9 mph88%29.97 "Hg15 mi
9:00 AM64 °FFog.7 mph100%29.97 "Hg4 mi
8:00 AM64 °FFog.9 mph100%29.97 "Hg4 mi
7:00 AM63 °FFog.5 mph94%29.96 "Hg0 mi
6:00 AM64 °FDrizzle. Fog.5 mph100%29.94 "Hg0 mi
5:00 AM66 °FFog.3 mph94%29.92 "Hg0 mi
4:00 AM66 °FFog.3 mph100%29.91 "Hg1 mi
3:52 AM66 °FFog.5 mph100%29.91 "Hg1 mi
3:00 AM68 °FFog.7 mph94%29.91 "Hg1 mi
2:00 AM66 °FFog.5 mph100%29.92 "Hg4 mi
1:45 AM66 °FFog.5 mph94%29.92 "Hg5 mi
1:00 AM66 °FPartly cloudy.3 mph94%29.91 "Hg7 mi
12:00 AM66 °FPassing clouds.7 mph100%29.92 "Hg7 mi
Weather by CustomWeather, © 2014

See weather overviewHow to use our weather pages